FW1970 Weather Reports


Display with metric or nautical units.
time (UTC)temp
F
wind
direction
speed
MPH
gust
MPH
rain 1hr
in
rain 24hr
in
rain mn
in
humidity
%
barometer
mb
20260906124543 63 360 4.0 9.0 0.00 0.00 0.00 76 1015.1
20260906123043 62 360 4.0 8.0 0.00 0.00 0.00 77 1014.7
20260906121534 62 360 2.0 9.0 0.00 0.00 0.00 78 1014.4
20260906120030 61 360 5.0 11.0 0.00 0.00 0.00 79 1014.3
20260906114525 60 360 2.0 8.0 0.00 0.00 0.00 80 1014.2
20260906113020 59 360 2.0 5.0 0.00 0.00 0.00 80 1014.0
20260906111516 59 360 1.0 5.0 0.00 0.00 0.00 80 1014.0
20260906110013 59 50 0.0 6.0 0.00 0.00 0.00 80 1014.0
20260906104526 59 46 2.0 4.0 0.00 0.00 0.00 80 1013.6
20260906103031 59 54 2.0 4.0 0.00 0.00 0.00 80 1013.6
20260906101508 59 29 0.0 4.0 0.00 0.00 0.00 80 1013.6
20260906100020 59 40 0.0 6.0 0.00 0.00 0.00 80 1013.4
20260906094505 59 46 0.0 3.0 0.00 0.00 0.00 80 1013.5
20260906093015 59 71 1.0 4.0 0.00 0.00 0.00 80 1013.3
20260906091508 59 22 0.0 4.0 0.00 0.00 0.00 80 1013.2
20260906090001 60 46 1.0 4.0 0.00 0.00 0.00 80 1013.0
20260906084602 60 17 1.0 3.0 0.00 0.00 0.00 79 1012.9
20260906083100 60 20 0.0 0.0 0.00 0.00 0.00 79 1012.9
20260906081558 60 360 0.0 1.0 0.00 0.00 0.00 79 1012.8
20260906080057 61 24 0.0 4.0 0.00 0.00 0.00 79 1012.6
20260906074555 61 22 2.0 5.0 0.00 0.00 0.00 79 1012.7
20260906073054 61 360 3.0 5.0 0.00 0.00 0.00 79 1012.4
20260906071552 61 360 2.0 5.0 0.00 0.00 0.00 79 1012.3
20260906070051 61 360 1.0 4.0 0.00 0.00 0.00 78 1012.7
20260906064550 61 360 0.0 4.0 0.00 0.00 0.00 78 1012.5
20260906063049 61 360 0.0 3.0 0.00 0.00 0.00 78 1012.4
20260906061552 61 360 0.0 3.0 0.00 0.00 0.00 78 1012.4
20260906060045 62 360 0.0 3.0 0.00 0.00 0.00 77 1012.4
20260906054600 62 360 0.0 2.0 0.00 0.00 0.00 77 1012.2
20260906053041 63 360 0.0 2.0 0.00 0.00 0.00 76 1012.3
20260906051538 63 360 0.0 1.0 0.00 0.00 0.00 75 1012.3
20260906050039 64 360 1.0 5.0 0.00 0.00 0.00 74 1012.3
20260906044537 64 360 2.0 6.0 0.00 0.00 0.00 74 1012.2
20260906043034 64 360 1.0 5.0 0.00 0.00 0.00 73 1012.1
20260906041532 65 360 3.0 8.0 0.00 0.00 0.00 73 1012.4
20260906040044 65 360 2.0 5.0 0.00 0.00 0.00 73 1012.3
20260906034543 65 360 2.0 5.0 0.00 0.00 0.00 73 1012.3
20260906033028 66 360 2.0 8.0 0.00 0.00 0.00 73 1012.4
20260906031556 66 360 0.0 5.0 0.00 0.00 0.00 72 1012.5
20260906030024 67 360 2.0 5.0 0.00 0.00 0.00 72 1012.3
20260906024548 67 360 1.0 8.0 0.00 0.00 0.00 71 1012.2
20260906023025 68 360 1.0 6.0 0.00 0.00 0.00 70 1012.1
20260906021523 68 360 1.0 5.0 0.00 0.00 0.00 70 1011.9
20260906020021 69 360 1.0 6.0 0.00 0.00 0.00 70 1011.8
20260906014522 69 360 2.0 10.0 0.00 0.00 0.00 69 1011.5
20260906013020 70 360 2.0 8.0 0.00 0.00 0.00 70 1011.6
20260906011519 70 360 0.0 4.0 0.00 0.00 0.00 71 1011.3
20260906010038 70 360 0.0 2.0 0.00 0.00 0.00 71 1011.2
20260906004517 71 360 0.0 4.0 0.00 0.00 0.00 71 1011.2
20260906003017 71 360 0.0 2.0 0.00 0.00 0.00 71 1011.0
20260906001518 71 360 0.0 2.0 0.00 0.00 0.00 72 1010.9
20260906000019 72 360 0.0 1.0 0.00 0.00 0.00 71 1010.9
20260905234517 73 360 0.0 2.0 0.00 0.00 0.00 70 1010.8
20260905233013 74 360 2.0 5.0 0.00 0.00 0.00 69 1010.7
20260905231513 75 360 1.0 4.0 0.00 0.00 0.00 68 1010.8
20260905230026 76 350 2.0 5.0 0.00 0.00 0.00 68 1010.7
20260905224518 76 341 1.0 5.0 0.00 0.00 0.00 69 1010.7
20260905223015 76 318 1.0 8.0 0.00 0.00 0.00 70 1010.5
20260905221510 76 344 2.0 5.0 0.00 0.00 0.00 70 1010.4
20260905220010 76 360 2.0 9.0 0.00 0.00 0.00 70 1010.4
20260905214507 77 351 2.0 5.0 0.00 0.00 0.00 69 1009.9
20260905213007 77 333 2.0 5.0 0.00 0.00 0.00 68 1010.0
20260905211520 78 344 1.0 8.0 0.00 0.00 0.00 67 1009.9
20260905210010 78 350 2.0 6.0 0.00 0.00 0.00 68 1010.0
20260905204507 77 24 1.0 4.0 0.00 0.00 0.00 69 1010.0
20260905203005 76 30 2.0 6.0 0.00 0.00 0.00 69 1010.2
20260905201504 78 54 1.0 5.0 0.00 0.00 0.00 68 1010.2
20260905200003 78 13 1.0 6.0 0.00 0.00 0.00 68 1010.3
20260905194606 78 28 2.0 10.0 0.00 0.00 0.00 67 1010.6
20260905193100 78 69 2.0 5.0 0.00 0.00 0.00 68 1010.7
20260905191559 77 53 1.0 6.0 0.00 0.00 0.00 71 1010.9
20260905190058 76 65 0.0 5.0 0.00 0.00 0.00 71 1011.0
20260905184557 76 49 2.0 6.0 0.00 0.00 0.00 71 1011.0
20260905183057 77 55 0.0 5.0 0.00 0.00 0.00 71 1011.1
20260905181555 75 32 4.0 7.0 0.00 0.00 0.00 73 1011.2
20260905174555 78 51 0.0 5.0 0.00 0.00 0.00 69 1011.1
20260905173101 78 326 5.0 8.0 0.00 0.00 0.00 69 1011.2
20260905171550 76 37 3.0 6.0 0.00 0.00 0.00 72 1011.2
20260905170049 76 48 2.0 6.0 0.00 0.00 0.00 73 1011.4
20260905164547 75 53 2.0 6.0 0.00 0.00 0.00 74 1011.5
20260905163047 75 342 2.0 6.0 0.00 0.00 0.00 73 1011.8
20260905161545 76 24 3.0 6.0 0.00 0.00 0.00 71 1011.8
20260905160045 76 336 1.0 6.0 0.00 0.00 0.00 72 1012.3
20260905154545 77 71 0.0 3.0 0.00 0.00 0.00 71 1012.2
20260905153042 77 102 0.0 4.0 0.00 0.00 0.00 72 1011.9
20260905151546 74 128 0.0 5.0 0.00 0.00 0.00 75 1011.9
20260905150038 74 230 1.0 4.0 0.00 0.00 0.00 75 1011.9
20260905144536 73 81 0.0 4.0 0.00 0.00 0.00 76 1011.8
20260905143045 73 135 0.0 3.0 0.00 0.00 0.00 78 1011.9
20260905141532 71 360 0.0 2.0 0.00 0.00 0.00 83 1011.5
20260905140032 69 360 1.0 3.0 0.00 0.00 0.00 86 1011.6
20260905134534 69 10 2.0 5.0 0.00 0.00 0.00 87 1011.7
20260905133026 68 360 1.0 4.0 0.00 0.00 0.00 87 1011.9
20260905131527 68 360 1.0 3.0 0.00 0.00 0.00 88 1012.1
20260905130022 67 360 1.0 4.0 0.00 0.00 0.00 88 1011.9